Regional Weather Roundup
Issued by NWS Albany, NY

Home | Current Version | Previous Version | Graphics & Text | Print | Product List | Glossary Off
Versions: 1 2 3 4 5 6 7 8 9 10 11 12 13 14 15 16 17 18 19 20 21 22 23 24 25 26 27 28 29 30 31 32 33 34 35 36 37 38 39 40 41 42 43 44 45 46 47 48 49 50

000
ASUS41 KALY 281710
RWRALY

NEW YORK STATE HOURLY WEATHER ROUNDUP
NATIONAL WEATHER SERVICE ALBANY NY
100 PM EDT WED SEP 28 2016

NOTE: "FAIR" INDICATES FEW OR NO CLOUDS BELOW 12,000 FEET WITH NO
SIGNIFICANT WEATHER AND/OR NO OBSTRUCTIONS TO VISIBILITY.

NYZ032-033-038>043-046>054-057>066-NYZ062>081-082-084-281800-
EAST


CITY           SKY/WX    TMP DP  RH WIND       PRES   REMARKS
ALBANY         CLOUDY    67  52  58 E8        30.19S
GLENS FALLS    PTSUNNY   70  50  49 E10       30.20S
POUGHKEEPSIE   PTSUNNY   66  54  65 NE10      30.15S
NEWBURGH       PTSUNNY   66  57  72 E12       30.16F
MONTGOMERY     CLOUDY    67  55  65 NE12      30.15F
WHITE PLAINS   CLOUDY    64  55  72 NE9       30.14S
ISLIP          CLOUDY    64  57  78 E14       30.13R
NEW YORK CITY  CLOUDY    69  59  70 NE20      30.13R
CENTRAL PARK   CLOUDY    67  58  72 NE10      30.16R
$$

NYZ005>009-017-018-044>046-055-056-281800-
CENTRAL


CITY           SKY/WX    TMP DP  RH WIND       PRES   REMARKS
FULTON         SUNNY     71  51  49 SE8G18    30.10S
SYRACUSE       MOSUNNY   71  52  50 E14       30.09S
ROME           CLOUDY    63  54  72 E16G29    30.18R
ELMIRA         SUNNY     73  43  33 SE13G23   30.07F
BINGHAMTON     MOSUNNY   67  49  52 E20G26    30.11S
MONTICELLO     CLOUDY    57  54  88 E10G17    30.18R
$$

NYZ026>034-041>043-087-281800-
NORTH


CITY           SKY/WX    TMP DP  RH WIND       PRES   REMARKS
WATERTOWN      SUNNY     75  42  30 S7        30.11R
FORT DRUM      NOT AVBL
OGDENSBURG     FAIR      69  55  61 NE7       30.16S HAZE
MASSENA        SUNNY     63  54  72 NE16      30.21R
SARANAC LAKE   PTSUNNY   68  47  46 SE9G17    30.18R
PLATTSBURGH    SUNNY     68  54  60 SE9       30.22R
$$

NYZ001>004-010>016-019>021-085-281800-
WEST


CITY           SKY/WX    TMP DP  RH WIND       PRES   REMARKS
NIAGARA FALLS  CLOUDY    75  43  31 SE10      30.02S
BUFFALO        PTSUNNY   73  45  36 SE15      30.03R
DUNKIRK        CLOUDY    71  51  49 E15       30.00S
JAMESTOWN      MOSUNNY   66  48  52 SE14G23   30.01F
ROCHESTER      PTSUNNY   75  42  30 SE13G23   30.06R
PENN YAN       SUNNY     74  43  32 SE13      30.09R
$$

             KEY
       WCI = WIND CHILL INDEX
       VSB = VISIBILITY
       HX  = HEAT INDEX
$$



USA.gov is the U.S. government's official web portal to all federal, state and local government web resources and services.